Location: Bachas
(43.2439°N, 0.9375°E)
Time: 04:39:16
(UTC+00:00)

Meteor 2-2 Rocket - Pass Details

Date: 18 February 2020
Orbit: 852 x 929 km, 81.3° (Epoch: 09 April)

Event Time Altitude Azimuth Distance (km) Brightness Sun altitude
Rises 05:13:11 0° 187° (S) 3,551 7.4 -18.4°
Reaches altitude 10° 05:15:38 10° 187° (S) 2,618 6.7 -18.0°
Maximum altitude 05:21:39 88° 101° (E) 936 4.4 -16.9°
Drops below altitude 10° 05:27:43 10° 11° (N) 2,641 6.9 -15.8°
Sets 05:30:12 0° 11° (N) 3,584 7.6 -15.3°
